Showing default

AURORA 1, 2876

Orbit data source: Space-Track

AURORA 1, 2876 is an American payload satellite in LEO that was launched on Thu, 29 Jun 1967 UTC via a THOR BURNER 2 launch vehicle from the Air Force Western Test Range (AFWTR). Payload-class satellites include a variety of spacecraft equipped with specific instruments for various scientific and technological missions. These include communications satellites like Starlink; space stations such as the ISS; scientific satellites like the Hubble; Earth observation satellites from companies like Planet Labs, Umbra, and HawkEye 360; GPS; miniature CubeSats for education and research; and military/defense satellites.

Loading next visibility...
Identifier
2876, 1967-065B
Orbit
LEO
Country
Flag of USUS
Related business
Manufacturer
Rice
Mission
Spacecraft
Bus & Motor
RICE AURORA, Unknown motor
Mass
21 kg wet, 21 kg dry
Launch date (UTC)
1967-06-29 (59 years ago)
Launch vehicle
THOR BURNER 2
Launch site
Air Force Western Test Range (AFWTR)
Object type
Payload
Rocket body
Debris
Shape & HBR
Unknown
Radar Cross Section
Medium (>0.1 m² and <1 m²)

Expand to show TLE details & history
Last TLE update: 3 days ago

TLE from 3 days ago
0 AURORA 1
1 02876U 67065B   26175.80236494  .00000000  00000-0 -12624-2 0  9992
2 02876  89.9790 313.2735 0070972  98.5201 262.3686  8.36560125390248
Epoch: 2026-06-24T19:15Z
TLE epoch observation values (Epoch: 2026-06-24T19:15:24.330Z)
Latitude
-0.00002°
Longitude
111.46777°
Altitude
3,884.491 km
Speed
6.23 km/s
True Right ascension
20h 53m 05s
True Declination
0° 00' 00"
Sunlit
Object was in daylight at epoch
Visualization orbit readout
Latitude
Unknown
Longitude
Unknown
Altitude
Unknown
Speed
Unknown
Apparent Right ascension
Unknown
Apparent Declination
Unknown
Sunlit
N/A
Visualization observer readout
Local Sidereal Time
21:48:45
Azimuth
Unknown
Elevation
Unknown
Doppler factor
Unknown
Orbital elements
Apogee altitude
3,942.766 km
Perigee altitude
3,797.299 km
Semi-major axis
10,248.17 km
Eccentricity
0.0071
Inclination
89.979°
RAAN
313.2735°
Arg. of periapsis
98.5201°
True anomaly
261.5635°
Mean anomaly
262.3686°
Eccentric anomaly
261.96595°
Mean motion
2.09206 °/min
Orbital period
172.08 mins
BSTAR
-0.0012624
Loading maneuver chart data...
Computing Atmospheric mass density...
Loading historical data...
Loading historical data...
Loading historical data...
Loading historical data...
Loading historical data...
Loading historical data...
Loading historical data...
Other satellites on launch #65 in the year 1967 (1967-06-29 UTC)

Documentation

Showing up to 5 results
|